,

(GMT )
Al Udeid

Weather History for KQIR - October, 2011

Change the Weather History Date:

Thursday, October 13, 2011

  Actual Average Record
Temperature  
Mean Temperature 87 °F -  
Max Temperature 95 °F - - ()
Min Temperature 78 °F - - ()
Cooling Degree Days 22    
Growing Degree Days 37 (Base 50)    
Moisture  
Dew Point 72 °F    
Average Humidity 65    
Maximum Humidity 84    
Minimum Humidity 44    
Precipitation  
Precipitation 0.03 in - - ()
Sea Level Pressure  
Sea Level Pressure 29.87 in    
Wind  
Wind Speed 8 mph ()    
Max Wind Speed 23 mph    
Max Gust Speed 38 mph    
Visibility 5.9 miles    
Events Rain , Thunderstorm    
Averages and records for this station are not official NWS values.
T = Trace of Precipitation, MM = Missing Value Source: Averaged Metar Reports

Daily Weather History Graph

Daily Weather History Graph

Search for Another Location

Airport or City:

Astronomy

Oct. 13, 2011 Rise Set
Actual Time 5:31 AM +03 5:09 PM +03
Civil Twilight 5:08 AM +03 5:32 PM +03
Nautical Twilight 4:42 AM +03 5:59 PM +03
Astronomical Twilight 4:15 AM +03 6:26 PM +03
Moon 5:47 PM +03 (10/13) 6:27 AM +03 (10/13)
Length of Visible Light 12h 24m
Length of Day
11h 38m
Full, 99% of the Moon is Illuminated
Oct 13
Full
Oct 20
Last Quarter
Oct 26
New
Nov 2
First Quarter
Nov 10
Full

Hourly Weather History & Observations

Time (+03) Temp. Heat Index Dew Point Humidity Pressure Visibility Wind Dir Wind Speed Gust Speed Precip Events Conditions
12:55 AM 84.6 °F 92.8 °F 75.2 °F 73% 29.88 in 6.2 mi NNW 5.8 mph - N/A   Clear
1:55 AM 81.9 °F 88.0 °F 74.5 °F 78% 29.87 in 6.2 mi NNW 8.1 mph - N/A   Clear
2:55 AM 82.2 °F 88.8 °F 74.8 °F 78% 29.86 in 6.2 mi North 9.2 mph - N/A   Clear
3:55 AM 81.7 °F 87.8 °F 74.7 °F 79% 29.86 in 6.2 mi North 8.1 mph - N/A   Clear
4:55 AM 80.8 °F 86.1 °F 74.5 °F 81% 29.87 in 6.2 mi NNW 8.1 mph - N/A   Clear
5:55 AM 80.2 °F 85.0 °F 74.1 °F 82% 29.89 in 6.2 mi NNW 6.9 mph - N/A   Clear
6:55 AM 83.7 °F 91.7 °F 75.2 °F 76% 29.90 in 6.2 mi North 6.9 mph - N/A   Clear
7:55 AM 87.3 °F 98.8 °F 76.6 °F 71% 29.91 in 6.2 mi NNE 6.9 mph - N/A   Clear
8:55 AM 90.1 °F 100.6 °F 74.8 °F 61% 29.91 in 6.2 mi NE 8.1 mph - N/A   Clear
9:55 AM 93.0 °F 100.7 °F 72.0 °F 50% 29.91 in 6.2 mi ENE 6.9 mph - N/A   Clear
10:55 AM 94.6 °F 100.5 °F 69.6 °F 44% 29.88 in 6.2 mi East 11.5 mph - N/A   Scattered Clouds
11:55 AM 95.2 °F 103.6 °F 72.1 °F 47% 29.86 in 6.2 mi NE 13.8 mph - N/A   Clear
12:55 PM 95.5 °F 104.4 °F 72.3 °F 47% 29.83 in 6.2 mi NE 12.7 mph - N/A   Clear
1:40 PM 95.0 °F 103.2 °F 71.6 °F 47% 29.83 in 6.2 mi NE 12.7 mph - N/A Thunderstorm Mostly Cloudy
1:54 PM 93.2 °F 100.5 °F 71.6 °F 49% 29.83 in 6.2 mi ENE 10.4 mph - N/A Thunderstorm Thunderstorm
1:55 PM 93.4 °F 101.5 °F 72.1 °F 50% 29.83 in 6.2 mi ENE 12.7 mph - N/A Thunderstorm Thunderstorm
2:08 PM 93.2 °F 100.5 °F 71.6 °F 49% 29.82 in 3.1 mi ENE 12.7 mph - N/A Thunderstorm Thunderstorm
2:15 PM 84.2 °F 89.6 °F 71.6 °F 66% 29.86 in 5.6 mi NNW 23.0 mph - N/A Rain , Thunderstorm Thunderstorms and Rain
2:41 PM 89.6 °F 93.4 °F 68.0 °F 49% 29.84 in 1.0 mi WNW 21.9 mph - N/A Thunderstorm Thunderstorm
2:54 PM 84.2 °F 88.4 °F 69.8 °F 62% 29.84 in 5.6 mi NW 15.0 mph 38.0 mph N/A Rain , Thunderstorm Thunderstorms and Rain
3:43 PM 82.4 °F 87.2 °F 71.6 °F 70% 29.86 in 6.2 mi NNE 5.8 mph - N/A   Clear
3:55 PM 84.2 °F 90.9 °F 73.6 °F 70% 29.86 in 6.2 mi NNW 10.4 mph - 0.03 in   Clear
4:55 PM 84.2 °F 89.6 °F 71.6 °F 66% 29.83 in 6.2 mi NNW 10.4 mph - N/A   Scattered Clouds
5:55 PM 83.7 °F 89.2 °F 72.1 °F 68% 29.86 in 6.2 mi Calm Calm - N/A   Clear
6:55 PM 84.2 °F 89.9 °F 72.1 °F 67% 29.88 in 6.2 mi NNE 8.1 mph - N/A   Clear
7:55 PM 82.6 °F 86.6 °F 70.3 °F 66% 29.89 in 6.2 mi NNE 5.8 mph - N/A   Clear
8:28 PM 84.2 °F 88.4 °F 69.8 °F 62% 29.89 in 6.2 mi North 5.8 mph - N/A   Clear
8:55 PM 82.6 °F 87.1 °F 70.9 °F 68% 29.90 in 6.2 mi North 6.9 mph - N/A   Clear
9:55 PM 82.6 °F 87.1 °F 70.9 °F 68% 29.91 in 6.2 mi North 6.9 mph - N/A   Clear
10:55 PM 79.2 °F - 73.4 °F 82% 29.90 in 6.2 mi North 5.8 mph - N/A   Clear
11:55 PM 78.6 °F - 73.6 °F 84% 29.90 in 6.2 mi North 5.8 mph - N/A   Clear